Content
SEND FEEDBACK

Daily
Averages
Monthly
Summary
Guyana

TIMEHRI, GUYANA


Home > Central America > Guyana
Elevation: 39 feet     Latitude: 06 30N     Longitude: 058 16W

WEATHER
 
SELECT A DAY
Number of Records: 129,067;   Date Range: 1/1/99 - 12/20/14
 
SHARE

PRINT THIS DATA

[ ← Previous Day ]
WEATHER ALMANAC - FEBRUARY 13, 2013
[ Next Day → ]
[ °C ]   °F
Weather ElementAverageHighLow
Temperature74.5 °F80.6 °F (10:00 am)73.4 °F (1:00 am)
Dewpoint73.7 °F77 °F (10:00 am)71.6 °F (3:00 am)
Humidity97.3 %100 % (1:00 am)89 % (10:00 am)
Barometer29.88 in29.92 in (8:00 am)29.83 in (3:00 am)
Wind Speed3.3 mph11.5 mph (7:00 pm)
Weather ElementAverage
Visibility4.8 mi
Wind DirectionENE (76.3 °)

Weather ElementTotal
Precipitation---
Cooling Degree Days12 (Base 65)
Growing Degree Days27 (Base 50)
Averaged from 24 records on February 13, 2013
WEATHER CONDITIONS BREAKOUT
WIND DIRECTION BREAKOUT
WEATHER BY HOUR - FEBRUARY 13, 2013
[ °C ]   °F
Local TimeTemperatureDewpointHumidityBarometerVisibilityWind DirectionWind SpeedGust SpeedPrecipitationEventsConditions
1:00 AM73.4 °F73.4 °F100 %29.89 in5.6 miCalmScattered Clouds
2:00 AM73.4 °F73.4 °F100 %29.86 in5.6 miCalmScattered Clouds
3:00 AM73.4 °F71.6 °F94 %29.83 in5.6 miCalmScattered Clouds
4:00 AM73.4 °F71.6 °F94 %29.86 in5.6 miCalmScattered Clouds
5:00 AM73.4 °F71.6 °F94 %29.86 in5.0 miWNW (300°)4.6 mphRainRain Showers
6:00 AM73.4 °F73.4 °F100 %29.86 in5.0 miCalmRainRain
7:00 AM73.4 °F73.4 °F100 %29.89 in3.7 miCalmRainRain
8:00 AM73.4 °F73.4 °F100 %29.92 in3.7 miENE (60°)6.9 mphRainRain
9:00 AM75.2 °F73.4 °F94 %29.92 in5.6 miWNW (290°)4.6 mphMostly Cloudy
10:00 AM80.6 °F77.0 °F89 %29.92 in5.6 miNNE (20°)2.3 mphRainRain Showers
11:00 AM77.0 °F75.2 °F94 %29.92 inNNW (340°)4.6 mphRainLight Rain
11:30 AM77.0 °F75.2 °F94 %29.92 in5.0 miNNW (340°)4.6 mphRainHeavy Rain
12:00 PM75.2 °F75.2 °F100 %29.89 in2.5 miNE (40°)4.6 mphRainHeavy Rain
1:00 PM75.2 °F75.2 °F100 %29.89 in3.1 miEast (100°)6.9 mphRainHeavy Rain
2:00 PM73.4 °F71.6 °F94 %29.89 in3.7 miNE (50°)4.6 mphRainLight Rain
3:00 PM75.2 °F73.4 °F94 %29.83 in5.0 miNE (50°)4.6 mphRainLight Rain
4:00 PM75.2 °F75.2 °F100 %29.83 in5.0 miEast (90°)9.2 mphRainLight Rain
5:00 PM75.2 °F75.2 °F100 %29.83 in5.0 miENE (60°)4.6 mphRainLight Rain
6:00 PM75.2 °F75.2 °F100 %29.86 in5.0 miCalmMostly Cloudy
7:00 PM73.4 °F73.4 °F100 %29.89 in3.7 miEast (80°)11.5 mphRainRain
8:00 PM73.4 °F73.4 °F100 %29.89 in3.7 miNorth (10°)4.6 mphRainRain
9:00 PM73.4 °F73.4 °F100 %29.92 in5.6 miCalmMostly Cloudy
10:00 PM73.4 °F73.4 °F100 %29.92 in5.6 miCalmMostly Cloudy
11:00 PM73.4 °F71.6 °F94 %29.92 in5.6 miCalmMostly Cloudy
Hourly data recorded from SYCJ, located miles away from Timehri, Guyana







STORIES FROM OUR PARTNERS